{"data":{"norad_id":54128,"intl_designator":"2022-138R","name":"ONEWEB-0510","alt_names":[],"object_type":"PAYLOAD","status":"ACTIVE","operator":null,"country":"UK","launch_date":"2022-10-22","launch_site_code":"SRILR","launch_vehicle":null,"mission":null,"orbit_class":"UNKNOWN","rcs_meters":null,"size_class":null,"mass_kg":null,"dimensions":null,"purposes":["comms"],"wikipedia_slug":null,"has_3d_model":false,"image_url":null,"decayed_at":null,"tle_current":{"epoch":"2026-05-25T02:26:49.837344Z","epoch_age_seconds":62413,"freshness":"FRESH","line1":"1 54128U 22138R   26145.10196571  .00000000  00000+0 -32154-4 0  9993","line2":"2 54128  87.9174 279.0383 0002304 106.1163 254.0224 13.20771645176231","mean_motion":13.20771645,"eccentricity":0.0002304,"inclination_deg":87.9174,"raan_deg":279.0383,"arg_perigee_deg":106.1163,"mean_anomaly_deg":254.0224,"bstar":-3.2154e-5,"rev_number":17623,"period_min":109.02717403507,"perigee_km":1180.0322100528,"apogee_km":1183.5158170479,"semimajor_km":7559.9110135503,"source":"CELESTRAK","updated_at":"2026-05-25T13:38:22.587527Z"}}}